Biggs, California, United States (95917)
Lat: 39.41N, Lon: 121.71W
Wx Zone: CAZ016
Local Info
Past Weather Observations for Saturday, April 19, 2014

NOTE: This archive is for the closest National Weather Service station to Biggs. Information may differ from the station used for current weather conditions.

Time Weather Temperature Dewpoint Humidity Pressure Winds Precip Visibility
23:53
Clear
61°F / 16°C 46°F / 8°C 59% 30.12 in
(1020 mb)
S 4.6 mph
(S 7 kph)
- 10SM
22:53
Clear
61°F / 16°C 46°F / 8°C 59% 30.09 in
(1019 mb)
Calm - 10SM
21:53
Clear
63°F / 17°C 45°F / 7°C 52% 30.09 in
(1019 mb)
E 4.6 mph
(E 7 kph)
- 10SM
20:53
Clear
66°F / 19°C 43°F / 6°C 43% 30.09 in
(1019 mb)
SE 5.8 mph
(SE 9 kph)
- 10SM
19:53
Clear
68°F / 20°C 41°F / 5°C 38% 30.06 in
(1018 mb)
E 5.8 mph
(E 9 kph)
- 10SM
18:53
Clear
72°F / 22°C 37°F / 3°C 29% 30.04 in
(1017 mb)
SE 6.9 mph
(SE 11 kph)
- 10SM
17:53
Clear
75°F / 24°C 39°F / 4°C 27% 30.01 in
(1016 mb)
SE 5.8 mph
(SE 9 kph)
- 10SM
16:53
Clear
77°F / 25°C 37°F / 3°C 24% 30.01 in
(1016 mb)
SE 10.4 mph
(SE 17 kph)
- 10SM
15:53
Clear
79°F / 26°C 37°F / 3°C 23% 30.01 in
(1016 mb)
SE 11.5 mph
(SE 19 kph)
- 10SM
14:53
Clear
79°F / 26°C 37°F / 3°C 23% 30.01 in
(1016 mb)
SE 10.4 mph
(SE 17 kph)
- 10SM
13:53
Clear
79°F / 26°C 41°F / 5°C 26% 30.01 in
(1016 mb)
SSE 10.4 mph
(SSE 17 kph)
- 10SM
12:53
Clear
75°F / 24°C 39°F / 4°C 27% 30.01 in
(1016 mb)
SSE 12.7 mph
(SSE 20 kph)
- 10SM
11:53
Clear
72°F / 22°C 43°F / 6°C 36% 30.01 in
(1016 mb)
SSE 11.5 mph
(SSE 19 kph)
- 10SM
10:53
Clear
70°F / 21°C 45°F / 7°C 40% 30.01 in
(1016 mb)
S 17.3 mph
(S 28 kph)
- 10SM
09:53
Clear
66°F / 19°C 45°F / 7°C 46% 30.01 in
(1016 mb)
SE 17.3 mph
(SE 28 kph)
- 10SM
08:53
Clear
63°F / 17°C 46°F / 8°C 56% 30.01 in
(1016 mb)
SE 12.7 mph
(SE 20 kph)
- 10SM
07:53
Clear
61°F / 16°C 46°F / 8°C 59% 29.98 in
(1015 mb)
SSE 11.5 mph
(SSE 19 kph)
- 10SM
06:53
Clear
57°F / 14°C 46°F / 8°C 67% 29.95 in
(1014 mb)
S 6.9 mph
(S 11 kph)
- 10SM
05:53
Clear
55°F / 13°C 46°F / 8°C 72% 29.95 in
(1014 mb)
SSE 9.2 mph
(SSE 15 kph)
- 10SM
04:53
Clear
55°F / 13°C 46°F / 8°C 72% 29.92 in
(1013 mb)
SE 9.2 mph
(SE 15 kph)
- 10SM
03:53
Clear
57°F / 14°C 48°F / 9°C 72% 29.92 in
(1013 mb)
SSE 5.8 mph
(SSE 9 kph)
- 10SM
02:53
Clear
61°F / 16°C 48°F / 9°C 63% 29.89 in
(1012 mb)
SSE 8.1 mph
(SSE 13 kph)
- 10SM
01:53
Clear
61°F / 16°C 52°F / 11°C 72% 29.89 in
(1012 mb)
SSE 6.9 mph
(SSE 11 kph)
- 10SM
00:53
Clear
59°F / 15°C 52°F / 11°C 77% 29.89 in
(1012 mb)
S 6.9 mph
(S 11 kph)
- 10SM
Time Weather Temperature Dewpoint Humidity Pressure Winds Precip Visibility


Weather for websites

WeatherForYou.com, LLC is not responsible for any damages or problems caused by this service. Current weather conditions are obtained from the closest station including government and personal stations which may have varying degrees of accuracy. Weather forecasts are derived from the NOAA NDFD. Like all things, this site belongs to Jesus Christ... He just trusts me to maintain it. If you have any questions or comments email webmaster@weatherforyou.com

Copyright © 2014, WeatherForYou.com LLC. All rights reserved.